[[{"header":{"parameterUnit":"m.s-1","parameterCategory":1,"la1":30.2991,"la2":30.254,"lo1":-89.0895,"lo2":-89.0444,"dy":0.0017,"dx":0.0017,"nx":28,"ny":28,"refTime":"2024-06-08T09:00:00:Z","depth":0,"parameterNumber":2,"parameterNumberName":"U-component_of_WINDS"},"data":[0,0,0,0,0,0,0,0,0,0,0,0,0,0,0,0,0,0,0,0,0,0,0,0,0,0,0,0,0,0,0,0,0,0,0,0,0,0,0,0,0,0,0,0,0,0,0,0,0,0,0,0,0,0,0,0,0,0,4.3456,4.3456,0,4.3491,4.3491,4.3491,4.3353,4.3349,4.3345,4.3341,4.3379,4.3384,4.3389,0,0,0,0,0,0,0,0,0,0,0,0,0,4.3271,4.3275,4.3456,4.3456,4.3457,4.349,4.3491,4.3491,4.3354,4.3349,4.3344,4.3339,4.3378,4.3383,4.3389,0,0,0,0,0,0,0,0,0,0,0,0,0,4.3333,4.3276,4.3456,4.3392,4.3387,4.349,4.3491,4.3492,4.3355,4.3349,4.3343,4.3337,4.3376,4.3383,4.339,4.3557,0,0,4.3412,4.3415,0,0,0,0,0,0,0,0,4.333,4.334,4.3401,4.3397,4.3391,4.3411,4.3439,4.3514,4.3356,4.3367,4.3341,4.3334,4.3395,4.34,4.342,4.3559,4.3561,4.3413,4.3417,4.342,4.3422,0,0,0,0,0,0,0,4.3326,4.3338,4.347,4.3402,4.3396,4.3362,4.3364,4.3453,4.3415,4.3366,4.3356,4.3362,4.3391,4.3414,4.342,4.3561,4.3412,4.3419,4.3423,4.3426,4.3834,4.384,0,0,0,0,0,0,4.333,4.3335,4.3469,4.3471,4.3345,4.337,4.3372,4.3411,4.3414,4.3408,4.3367,4.3355,4.3404,4.3412,4.3421,4.3613,4.342,4.3427,4.3431,4.3827,4.3835,4.3842,0,0,0,0,0,0,4.3326,4.3343,4.3467,4.34,4.3413,4.338,4.3424,4.3415,4.3437,4.3415,4.3407,4.3397,4.34,4.3411,4.3523,4.3612,4.343,4.3437,4.382,4.383,4.3839,4.4001,0,0,0,0,0,0,4.3321,4.3342,4.3406,4.3403,4.3418,4.3569,4.343,4.342,4.345,4.3435,4.3441,4.3436,4.3396,4.3513,4.353,4.3619,4.3442,4.3811,4.3824,4.3836,4.3988,4.4015,4.4039,0,0,0,0,0,4.3315,4.3452,4.341,4.3427,4.3496,4.3575,4.3583,4.3534,4.3458,4.352,4.3505,4.3436,4.3601,4.3526,4.3544,4.3636,4.3806,4.3821,4.3835,4.3976,4.401,4.4038,0,0,0,0,0,0,4.3469,4.3451,4.3404,4.3543,4.3561,4.3551,4.3629,4.3572,4.3612,4.3597,4.3534,4.3537,4.3659,4.3659,4.3576,4.3796,4.369,4.3709,4.3791,4.3823,4.3848,4.3844,4.3448,0,0,0,0,0,4.3519,4.3583,4.3564,4.369,4.3701,4.3664,4.3697,4.3656,4.3673,4.368,4.3673,4.3692,4.3747,4.3786,4.3836,4.3988,4.3985,4.406,4.4086,4.4107,4.4123,4.4199,4.4231,4.389,4.389,4.389,0,0,4.3623,4.3621,4.3666,4.372,4.3729,4.3797,4.3671,4.375,4.3799,4.3692,4.3796,4.3792,4.3809,4.394,4.3998,4.3944,4.4217,4.4125,4.4142,4.4147,4.4217,4.4249,4.4278,4.39,4.3898,4.3897,0,0,4.3846,4.3853,4.3955,4.3966,4.398,4.3954,4.3979,4.3977,4.397,4.4073,4.3993,4.4051,4.4149,4.4163,4.4183,4.4408,4.4344,4.4427,4.456,4.4634,4.4661,4.4684,4.4761,4.4789,4.4444,4.4444,4.4444,0,4.3973,4.4072,4.4015,4.4097,4.4122,4.4027,4.4129,4.4143,4.4175,4.4193,4.4133,4.425,4.4256,4.4387,4.4441,4.4463,4.4487,4.4425,4.4662,4.4685,4.4706,4.4777,4.4807,4.4454,4.4453,4.4452,4.4451,0,4.4225,4.4295,4.4376,4.4405,4.444,4.4532,4.4488,4.453,4.4487,4.4467,4.4572,4.4574,4.4621,4.465,4.461,4.4775,4.474,4.4672,4.4563,4.4748,4.4815,4.4842,4.4468,4.4464,4.4461,4.4459,0,0,4.4546,4.4541,4.4571,4.4581,4.4589,4.4642,4.4729,4.4773,4.4808,4.4833,4.4902,4.4986,4.4921,4.4944,4.4904,4.4971,4.5143,4.4893,4.4893,4.4936,4.532,4.5369,4.5402,4.5102,4.5107,4.5111,4.5317,0,4.4761,4.4908,4.4858,4.5007,4.5068,4.4978,4.5053,4.5065,4.5049,4.5098,4.5081,4.5139,4.5052,4.5064,4.5126,4.5109,4.5219,4.5094,4.5164,4.5167,4.5159,4.5437,4.5489,4.5684,4.5343,4.5348,4.5351,0,4.5032,4.5064,4.5218,4.5211,4.5235,4.5304,4.5337,4.5387,4.5399,4.5382,4.5406,4.5351,4.5435,4.5328,4.5441,4.5357,4.5383,4.5379,4.5385,4.5387,4.5268,4.5443,4.5745,4.5773,4.5392,4.5389,4.5386,0,4.5245,4.5327,4.5428,4.544,4.5437,4.5486,4.5487,4.5492,4.5521,4.5552,4.5568,4.561,4.5632,4.5664,4.5622,4.5549,4.5739,4.563,4.5726,4.5727,4.5767,4.5765,4.6074,4.5791,4.5791,4.579,4.5789,0,4.5488,4.5585,4.5523,4.5585,4.569,4.5632,4.5738,4.5728,4.5734,4.5792,4.5718,4.5774,4.5716,4.5767,4.5734,4.583,4.5842,4.5829,4.5818,4.5833,4.5834,4.5847,4.5831,4.5798,4.5796,4.5794,4.5793,0,4.5742,4.5705,4.5809,4.5796,4.5794,4.5872,4.586,4.5917,4.5894,4.5968,4.5983,4.5948,4.6003,4.5964,4.6021,4.5999,4.6123,4.6096,4.6118,4.6109,4.6205,4.6195,4.6531,4.657,4.6266,4.6269,4.6271,0,4.5898,4.5969,4.5963,4.5995,4.6,4.6055,4.6082,4.6028,4.606,4.6076,4.613,4.6179,4.6214,4.6307,4.6287,4.6328,4.6299,4.6414,4.6305,4.6316,4.6296,4.629,4.6295,4.6435,4.6438,4.6441,4.6444,0,4.6177,4.6154,4.6196,4.6231,4.6265,4.6291,4.631,4.6341,4.6286,4.6326,4.638,4.6407,4.6463,4.6511,4.6544,4.6545,4.6485,4.6479,4.6502,4.6516,4.6524,4.6516,4.6174,4.647,4.6468,4.6466,4.6464,4.6463,4.6383,4.6441,4.6444,4.6492,4.65,4.652,4.657,4.6553,4.6597,4.6636,4.6602,4.6667,4.6674,4.6712,4.672,4.6769,4.6722,4.6757,4.6765,4.6774,4.6785,4.6519,4.6776,4.6775,4.6774,4.6774,4.6773,0,4.6654,4.6651,4.6696,4.6723,4.6761,4.6701,4.6718,4.6753,4.681,4.6822,4.6857,4.6918,4.6964,4.6947,4.6987,4.7029,4.7002,4.7041,4.7035,4.7035,4.6827,4.6801,4.7062,4.7062,4.7062,4.7061,4.7061,4.7061,4.6799,4.6891,4.6869,4.6964,4.696,4.7021,4.7036,4.7052,4.706,4.7131,4.7168,4.7156,4.7155,4.7194,4.7232,4.7226,4.7242,4.7291,4.7274,4.7079,4.7051,4.7024,4.6998,4.7296,4.7296,4.7477,4.7479,4.748]},{"header":{"parameterUnit":"m.s-1","parameterCategory":1,"la1":30.2991,"la2":30.254,"lo1":-89.0895,"lo2":-89.0444,"dy":0.0017,"dx":0.0017,"nx":28,"ny":28,"refTime":"2024-06-08T09:00:00:Z","depth":0,"parameterNumber":3,"parameterNumberName":"V-component_of_WINDS"},"data":[0,0,0,0,0,0,0,0,0,0,0,0,0,0,0,0,0,0,0,0,0,0,0,0,0,0,0,0,0,0,0,0,0,0,0,0,0,0,0,0,0,0,0,0,0,0,0,0,0,0,0,0,0,0,0,0,0,0,3.5941,3.5942,0,3.6063,3.6065,3.6066,3.6054,3.6053,3.6051,3.6049,3.6175,3.618,3.6185,0,0,0,0,0,0,0,0,0,0,0,0,0,3.5697,3.5702,3.5941,3.5943,3.5944,3.6063,3.6065,3.6066,3.6055,3.6052,3.605,3.6048,3.6173,3.6179,3.6186,0,0,0,0,0,0,0,0,0,0,0,0,0,3.5809,3.5703,3.5941,3.5953,3.5955,3.6063,3.6065,3.6067,3.6055,3.6052,3.605,3.6047,3.6171,3.6179,3.6186,3.6291,0,0,3.621,3.6213,0,0,0,0,0,0,0,0,3.5803,3.5818,3.5949,3.5952,3.5955,3.6041,3.6025,3.6142,3.6056,3.6017,3.6049,3.6046,3.6133,3.6143,3.6173,3.6297,3.6302,3.6211,3.6215,3.6219,3.6221,0,0,0,0,0,0,0,3.5795,3.5813,3.5989,3.5951,3.5955,3.5952,3.5964,3.6047,3.6089,3.602,3.602,3.6034,3.6134,3.6165,3.6175,3.6304,3.621,3.6217,3.6222,3.6225,3.6517,3.652,0,0,0,0,0,0,3.5785,3.5807,3.5986,3.5993,3.587,3.5958,3.5973,3.6016,3.6088,3.6097,3.6037,3.6033,3.6153,3.6166,3.618,3.6305,3.6218,3.6226,3.623,3.6514,3.6518,3.6521,0,0,0,0,0,0,3.578,3.5801,3.5981,3.59,3.5922,3.5965,3.6014,3.602,3.6051,3.6101,3.6108,3.6061,3.6152,3.6169,3.6263,3.6309,3.6229,3.6236,3.651,3.6515,3.6519,3.6557,0,0,0,0,0,0,3.5773,3.5799,3.5839,3.5901,3.5927,3.6062,3.6017,3.6024,3.6065,3.6061,3.6126,3.6134,3.6151,3.6251,3.627,3.6318,3.6242,3.6506,3.6512,3.6518,3.6552,3.6563,3.6572,0,0,0,0,0,3.5764,3.5846,3.5842,3.5863,3.5978,3.6064,3.6079,3.6097,3.6068,3.6109,3.614,3.6132,3.6301,3.6261,3.6282,3.6334,3.6503,3.651,3.6517,3.6548,3.6561,3.6572,0,0,0,0,0,0,3.579,3.5855,3.585,3.5955,3.6004,3.6062,3.6114,3.6111,3.617,3.6164,3.6184,3.6199,3.6292,3.6322,3.6276,3.6437,3.6398,3.641,3.6414,3.6427,3.6437,3.6427,3.6248,0,0,0,0,0,3.5808,3.5873,3.5925,3.6012,3.6037,3.6071,3.611,3.6119,3.6171,3.6192,3.623,3.6281,3.6346,3.6388,3.645,3.6556,3.6569,3.6602,3.6612,3.662,3.6629,3.6686,3.67,3.6544,3.6544,3.6544,0,0,3.5846,3.5889,3.5929,3.6019,3.6058,3.6124,3.6089,3.6161,3.621,3.6203,3.6293,3.6323,3.6381,3.648,3.6526,3.6508,3.6675,3.6629,3.6635,3.664,3.6695,3.6709,3.6722,3.6549,3.6548,3.6547,0,0,3.5948,3.5988,3.6064,3.6103,3.6163,3.6185,3.6203,3.6261,3.628,3.6371,3.6366,3.6424,3.6536,3.6577,3.6612,3.6727,3.6721,3.6747,3.6799,3.6853,3.6866,3.6877,3.6916,3.6931,3.6756,3.6756,3.6757,0,3.5988,3.6087,3.6103,3.6175,3.6214,3.621,3.6286,3.6324,3.6401,3.6428,3.6406,3.6544,3.6583,3.6691,3.6719,3.6748,3.6768,3.674,3.6862,3.6874,3.6884,3.6922,3.6937,3.6759,3.6759,3.6759,3.6758,0,3.6132,3.6201,3.6255,3.6328,3.6373,3.6447,3.6474,3.6517,3.6522,3.6546,3.6637,3.6683,3.6753,3.678,3.6786,3.6888,3.6875,3.6858,3.6819,3.6901,3.6937,3.6952,3.6763,3.6762,3.6761,3.6761,0,0,3.6257,3.6336,3.6355,3.6387,3.6451,3.6505,3.6577,3.6645,3.6682,3.6734,3.6795,3.6888,3.6872,3.6912,3.6922,3.697,3.7056,3.6947,3.6948,3.6965,3.717,3.7183,3.7199,3.7052,3.7055,3.7057,3.7165,0,3.6365,3.6493,3.6509,3.6623,3.6685,3.6681,3.6744,3.679,3.6813,3.687,3.6896,3.6961,3.6935,3.6959,3.7006,3.7036,3.7098,3.7028,3.7109,3.7111,3.7094,3.7218,3.7232,3.7332,3.718,3.7182,3.7184,0,3.6509,3.6563,3.6684,3.6737,3.6764,3.682,3.6882,3.6937,3.6988,3.7001,3.7045,3.7048,3.7122,3.708,3.7182,3.7135,3.7168,3.7187,3.7192,3.72,3.7152,3.7229,3.7364,3.7379,3.7206,3.7205,3.7203,0,3.6585,3.669,3.6774,3.6802,3.6867,3.6906,3.6935,3.6983,3.7022,3.7077,3.7102,3.7165,3.7199,3.7247,3.7267,3.7235,3.7367,3.7327,3.738,3.738,3.7409,3.7406,3.755,3.7431,3.7431,3.743,3.743,0,3.6704,3.6778,3.681,3.6862,3.6943,3.696,3.704,3.7067,3.7109,3.7166,3.7166,3.7219,3.7242,3.7299,3.7315,3.7396,3.7412,3.7424,3.7428,3.7424,3.7422,3.7446,3.744,3.7434,3.7434,3.7433,3.7432,0,3.6805,3.6829,3.6921,3.6973,3.6988,3.7046,3.709,3.714,3.7162,3.7234,3.7252,3.7287,3.7353,3.7377,3.7459,3.7469,3.7563,3.7561,3.7545,3.7546,3.7597,3.7591,3.7761,3.7783,3.765,3.7651,3.7652,0,3.6879,3.6935,3.6993,3.703,3.706,3.7121,3.716,3.7178,3.7218,3.7279,3.7322,3.7387,3.7441,3.7547,3.758,3.7641,3.764,3.7695,3.765,3.7644,3.764,3.7636,3.7641,3.7704,3.7705,3.7706,3.7707,0,3.7007,3.7016,3.7072,3.7132,3.7179,3.7227,3.7274,3.7305,3.733,3.7375,3.7443,3.7484,3.7566,3.7631,3.7693,3.7723,3.7719,3.7721,3.7736,3.7733,3.7722,3.7727,3.7568,3.7717,3.7716,3.7716,3.7715,3.7715,3.7096,3.7145,3.7192,3.7255,3.7291,3.7335,3.7383,3.7411,3.7467,3.7534,3.7541,3.7613,3.7661,3.7744,3.7776,3.7832,3.7817,3.784,3.7846,3.7851,3.7854,3.7713,3.7844,3.7844,3.7844,3.7843,3.7843,0,3.7224,3.7253,3.731,3.7375,3.7424,3.7415,3.7466,3.7507,3.757,3.7614,3.7666,3.7743,3.7805,3.7841,3.7904,3.7942,3.7941,3.7957,3.7954,3.7961,3.7864,3.7844,3.7956,3.7956,3.7956,3.7956,3.7956,3.7956,3.7296,3.7377,3.7391,3.749,3.7519,3.7589,3.7618,3.7658,3.7693,3.7778,3.7829,3.7852,3.7893,3.7958,3.8014,3.8023,3.8046,3.8063,3.8071,3.798,3.7968,3.7957,3.7938,3.8068,3.8068,3.8163,3.8164,3.8164]}]]